Regional Weather Roundup
Issued by NWS

Home | Current Version | Previous Version | Graphics & Text | Print | Product List | Glossary On
Versions: 1 2 3 4 5 6 7 8 9 10 11 12 13 14 15 16 17 18 19 20 21 22 23 24 25 26 27 28 29 30 31 32 33 34 35 36 37 38 39 40 41 42 43 44 45 46 47 48 49 50
000
ASUS45 KABQ 180701
RWRNM
NEW MEXICO REGIONAL WEATHER ROUNDUP
NATIONAL WEATHER SERVICE ALBUQUERQUE NM
1200 AM MST WED JAN 18 2017

NOTE: "FAIR" MEANS FEW OR NO CLOUDS BELOW 12,000 FEET AGL WITH NO
       SIGNIFICANT WEATHER OR OBSTRUCTIONS TO VISION.

      THIS PRODUCT IS RELEASED AS TWO VERSIONS.  ONE VERSION NEAR
      THE TOP OF THE HOUR CONTAINING PRELIMINARY DATA FROM ALBUQUERQUE
      AND OTHER STATIONS.  A FINAL VERSION WITH ADDITIONAL DATA IS
      ISSUED ABOUT 10 MINUTES AFTER THE HOUR.

NMZ501-503-504-510>518-180800-
NORTHWEST PLATEAU/NORTHCENTRAL MOUNTAINS

CITY           SKY/WX    TMP DP  RH WIND       PRES   REMARKS
FARMINGTON     FAIR      33  31  92 W3        30.13S
LOS ALAMOS     CLOUDY    33  24  70 SW7       30.13F WCI  26
SANTA FE       MOCLDY    31  27  85 N6        30.12S WCI  25
TAOS           MOCLDY    25  18  74 N5        30.12S WCI  19
ANGEL FIRE     FOG        8   5  89 CALM      30.13F VSB 1/4

$$
NMZ402-403-502-505>509-180800-
WESTCENTRAL MOUNTAINS/SOUTHWEST MOUNTAINS

CITY           SKY/WX    TMP DP  RH WIND       PRES   REMARKS
GALLUP         CLOUDY    30  28  92 CALM      30.17S
GRANTS         MOCLDY    27  27  97 NW7       30.18S WCI  20
SILVER CITY    FAIR      33  32  98 NW3       30.17S

$$
NMZ407-409-411-412-180800-
SOUTHERN DESERTS

CITY           SKY/WX    TMP DP  RH WIND       PRES   REMARKS
DEMING         FAIR      37  36  96 N3        30.17S
LAS CRUCES     FAIR      37  36  97 NW5       30.18S WCI  34
HOLLOMAN AFB   CLOUDY    42  42 100 S5        30.20S
ALAMOGORDO     CLOUDY    41  41 100 E5        30.18S
T OR C         FAIR      38  36  92 CALM      30.15R

$$
NMZ519>523-180800-
CENTRAL VALLEYS/CENTRAL HIGHLANDS

CITY           SKY/WX    TMP DP  RH WIND       PRES   REMARKS
ALBUQUERQUE    MOCLDY    37  32  82 S3        30.14S
DOUBLE EAGLE   FAIR      33  31  92 N3        30.15S
MORIARTY ARPT  FAIR      27  25  90 S6        30.14S WCI  21
CLINES CORNERS FAIR      27  25  92 W10       30.12F WCI  17
BELEN          FAIR      35  33  90 SW3       30.14F
SOCORRO        CLOUDY    37  35  94 S6        30.15S WCI  32

$$
NMZ524>526-539-540-180800-
SOUTHCENTRAL MOUNTAINS

CITY           SKY/WX    TMP DP  RH WIND       PRES   REMARKS
RUIDOSO        FOG       32  32 100 NW3       30.17S VSB<1/4

$$
NMZ527>531-180800-
NORTHEAST HIGHLANDS/NORTHEAST PLAINS

CITY           SKY/WX    TMP DP  RH WIND       PRES   REMARKS
LAS VEGAS      FAIR      26  23  88 CALM      30.09F
RATON          CLOUDY    25  22  88 E6        30.09F WCI  18
CLAYTON        FAIR      33  33 100 SW8       30.09S WCI  26

$$
NMZ532>537-180800-
EASTCENTRAL PLAINS

CITY           SKY/WX    TMP DP  RH WIND       PRES   REMARKS
TUCUMCARI      CLOUDY    42  38  85 W6        30.10F
CANNON AFB     CLOUDY    40  40 100 W9        30.13F WCI  34
CLOVIS AIRPORT CLOUDY    43  39  87 S5        30.13F

$$
NMZ028-029-538-180800-
SOUTHEAST PLAINS

CITY           SKY/WX    TMP DP  RH WIND       PRES   REMARKS
ROSWELL        LGT RAIN  43  40  89 CALM      30.16F
ARTESIA        CLOUDY    43  43 100 CALM      30.17S
CARLSBAD       CLOUDY    43  43 100 CALM      30.15F


$$




USA.gov is the U.S. government's official web portal to all federal, state and local government web resources and services.